Location: Hohenfelde
(53.8441°N, 9.6220°E)
Time: 11:57:59
(UTC+00:00)

Cosmos 1500 - Pass Details

Date: 14 July 2020
Orbit: 498 x 520 km, 82.5° (Epoch: 09 August)

Event Time Altitude Azimuth Distance (km) Brightness Sun altitude
Exits shadow 00:58:23 15° 169° (S) 1,469 5.0 -12.0°
Maximum altitude 01:01:24 52° 96° (E) 645 3.8 -11.9°
Drops below altitude 10° 01:05:06 10° 20° (NNE) 1,737 7.4 -11.6°
Sets 01:07:16 0° 15° (NNE) 2,623 8.8 -11.5°
